Time,TemperatureF,DewpointF,PressureIn,WindDirection,WindDirectionDegrees,WindSpeedMPH,WindSpeedGustMPH,Humidity,HourlyPrecipIn,Conditions,Clouds,dailyrainin,SolarRadiationWatts/m^2,SoftwareType,DateUTC
2013-02-09 00:02:00,44.0,23.0,-100.00,WNW,283,13.0,18.0,43,0.00,,,0.00,0.000000,,2013-02-09 05:02:00,
2013-02-09 00:12:00,44.0,23.0,-100.00,WNW,283,13.0,18.0,43,0.00,,,0.00,0.000000,,2013-02-09 05:12:00,
2013-02-09 00:22:00,44.0,23.0,-100.00,WNW,283,13.0,18.0,43,0.00,,,0.00,0.000000,,2013-02-09 05:22:00,
2013-02-09 00:52:00,43.0,22.0,-100.00,WNW,297,12.0,24.0,42,0.00,,,0.00,0.000000,,2013-02-09 05:52:00,
2013-02-09 01:01:00,43.0,22.0,-100.00,WNW,297,12.0,24.0,42,0.00,,,0.00,0.000000,,2013-02-09 06:01:00,
2013-02-09 01:11:00,43.0,22.0,-100.00,WNW,297,12.0,24.0,42,0.00,,,0.00,0.000000,,2013-02-09 06:11:00,
2013-02-09 01:21:00,43.0,22.0,-100.00,WNW,297,12.0,24.0,42,0.00,,,0.00,0.000000,,2013-02-09 06:21:00,
2013-02-09 01:52:00,43.0,20.0,-100.00,NW,304,11.0,18.0,40,0.00,,,0.00,0.000000,,2013-02-09 06:52:00,
2013-02-09 02:01:00,43.0,20.0,-100.00,NW,304,11.0,18.0,40,0.00,,,0.00,0.000000,,2013-02-09 07:01:00,
2013-02-09 02:11:00,43.0,20.0,-100.00,NW,304,11.0,18.0,40,0.00,,,0.00,0.000000,,2013-02-09 07:11:00,
2013-02-09 02:21:00,43.0,20.0,-100.00,NW,304,11.0,18.0,40,0.00,,,0.00,0.000000,,2013-02-09 07:21:00,
2013-02-09 02:52:00,43.0,19.0,-100.00,NW,318,12.0,20.0,37,0.00,,,0.00,0.000000,,2013-02-09 07:52:00,
2013-02-09 03:01:00,43.0,19.0,-100.00,NW,318,12.0,20.0,37,0.00,,,0.00,0.000000,,2013-02-09 08:01:00,
2013-02-09 03:11:00,43.0,19.0,-100.00,NW,318,12.0,20.0,37,0.00,,,0.00,0.000000,,2013-02-09 08:11:00,
2013-02-09 03:21:00,43.0,19.0,-100.00,NW,318,12.0,20.0,37,0.00,,,0.00,0.000000,,2013-02-09 08:21:00,
2013-02-09 03:52:00,40.0,19.0,-100.00,NNW,332,8.0,16.0,43,0.00,,,0.00,0.000000,,2013-02-09 08:52:00,
2013-02-09 04:02:00,40.0,19.0,-100.00,NNW,332,8.0,16.0,43,0.00,,,0.00,0.000000,,2013-02-09 09:02:00,
2013-02-09 04:11:00,40.0,19.0,-100.00,NNW,332,8.0,16.0,43,0.00,,,0.00,0.000000,,2013-02-09 09:11:00,
2013-02-09 04:21:00,40.0,19.0,-100.00,NNW,332,8.0,16.0,43,0.00,,,0.00,0.000000,,2013-02-09 09:21:00,
2013-02-09 04:52:00,41.0,22.0,-100.00,NW,315,11.0,18.0,46,0.00,,,0.00,0.000000,,2013-02-09 09:52:00,
2013-02-09 05:01:00,41.0,22.0,-100.00,NW,315,11.0,18.0,46,0.00,,,0.00,0.000000,,2013-02-09 10:01:00,
2013-02-09 05:11:00,41.0,22.0,-100.00,NW,315,11.0,18.0,46,0.00,,,0.00,0.000000,,2013-02-09 10:11:00,
2013-02-09 05:21:00,41.0,22.0,-100.00,NW,315,11.0,18.0,46,0.00,,,0.00,0.000000,,2013-02-09 10:21:00,
2013-02-09 05:52:00,41.0,20.0,-100.00,NW,320,11.0,23.0,42,0.00,,,0.00,0.000000,,2013-02-09 10:52:00,
2013-02-09 06:01:00,41.0,20.0,-100.00,NW,320,11.0,23.0,42,0.00,,,0.00,0.000000,,2013-02-09 11:01:00,
2013-02-09 06:11:00,41.0,20.0,-100.00,NW,320,11.0,23.0,42,0.00,,,0.00,0.000000,,2013-02-09 11:11:00,
2013-02-09 06:21:00,41.0,20.0,-100.00,NW,320,11.0,23.0,42,0.00,,,0.00,0.000000,,2013-02-09 11:21:00,
2013-02-09 06:52:00,40.0,19.0,-100.00,NW,324,8.0,19.0,42,0.00,,,0.00,0.000000,,2013-02-09 11:52:00,
2013-02-09 07:02:00,40.0,19.0,-100.00,NW,324,8.0,19.0,42,0.00,,,0.00,0.000000,,2013-02-09 12:02:00,
2013-02-09 07:11:00,40.0,19.0,-100.00,NW,324,8.0,19.0,42,0.00,,,0.00,0.000000,,2013-02-09 12:11:00,
2013-02-09 07:21:00,40.0,19.0,-100.00,NW,324,8.0,19.0,42,0.00,,,0.00,0.000000,,2013-02-09 12:21:00,
2013-02-09 07:52:00,41.0,20.0,-100.00,WNW,299,10.0,17.0,42,0.00,,,0.00,0.000000,,2013-02-09 12:52:00,
2013-02-09 08:02:00,41.0,20.0,-100.00,WNW,299,10.0,17.0,42,0.00,,,0.00,0.000000,,2013-02-09 13:02:00,
2013-02-09 08:11:00,41.0,20.0,-100.00,WNW,299,10.0,17.0,42,0.00,,,0.00,0.000000,,2013-02-09 13:11:00,
2013-02-09 08:21:00,41.0,20.0,-100.00,WNW,299,10.0,17.0,42,0.00,,,0.00,0.000000,,2013-02-09 13:21:00,
2013-02-09 08:52:00,40.0,23.0,-100.00,WNW,287,10.0,17.0,50,0.00,,,0.00,0.000000,,2013-02-09 13:52:00,
2013-02-09 09:01:00,40.0,23.0,-100.00,WNW,287,10.0,17.0,50,0.00,,,0.00,0.000000,,2013-02-09 14:01:00,
2013-02-09 09:11:00,40.0,23.0,-100.00,WNW,287,10.0,17.0,50,0.00,,,0.00,0.000000,,2013-02-09 14:11:00,
2013-02-09 09:21:00,40.0,23.0,-100.00,WNW,287,10.0,17.0,50,0.00,,,0.00,0.000000,,2013-02-09 14:21:00,
2013-02-09 09:52:00,40.0,21.0,-100.00,WNW,299,7.0,19.0,46,0.00,,,0.00,0.000000,,2013-02-09 14:52:00,
2013-02-09 10:01:00,40.0,21.0,-100.00,WNW,299,7.0,19.0,46,0.00,,,0.00,0.000000,,2013-02-09 15:01:00,
2013-02-09 10:11:00,40.0,21.0,-100.00,WNW,299,7.0,19.0,46,0.00,,,0.00,0.000000,,2013-02-09 15:11:00,
2013-02-09 10:21:00,40.0,21.0,-100.00,WNW,299,7.0,19.0,46,0.00,,,0.00,0.000000,,2013-02-09 15:21:00,
2013-02-09 10:52:00,41.0,23.0,-100.00,WNW,286,8.0,12.0,49,0.00,,,0.00,5.000000,,2013-02-09 15:52:00,
2013-02-09 11:01:00,41.0,23.0,-100.00,WNW,286,8.0,12.0,49,0.00,,,0.00,5.000000,,2013-02-09 16:01:00,
2013-02-09 11:11:00,41.0,23.0,-100.00,WNW,286,8.0,12.0,49,0.00,,,0.00,5.000000,,2013-02-09 16:11:00,
2013-02-09 11:21:00,41.0,23.0,-100.00,WNW,286,8.0,12.0,49,0.00,,,0.00,5.000000,,2013-02-09 16:21:00,
2013-02-09 11:52:00,46.0,23.0,-100.00,North,9,6.0,12.0,40,0.00,,,0.00,81.000000,,2013-02-09 16:52:00,
2013-02-09 12:01:00,46.0,23.0,-100.00,North,9,6.0,12.0,40,0.00,,,0.00,81.000000,,2013-02-09 17:01:00,
2013-02-09 12:11:00,46.0,23.0,-100.00,North,9,6.0,12.0,40,0.00,,,0.00,81.000000,,2013-02-09 17:11:00,
2013-02-09 12:21:00,46.0,23.0,-100.00,North,9,6.0,12.0,40,0.00,,,0.00,81.000000,,2013-02-09 17:21:00,
2013-02-09 12:52:00,47.0,25.0,-100.00,NNE,17,4.0,12.0,41,0.00,,,0.00,280.000000,,2013-02-09 17:52:00,
2013-02-09 13:01:00,47.0,25.0,-100.00,NNE,17,4.0,12.0,41,0.00,,,0.00,280.000000,,2013-02-09 18:01:00,
2013-02-09 13:11:00,47.0,25.0,-100.00,NNE,17,4.0,12.0,41,0.00,,,0.00,280.000000,,2013-02-09 18:11:00,
2013-02-09 13:23:00,47.0,25.0,-100.00,NNE,17,4.0,12.0,41,0.00,,,0.00,280.000000,,2013-02-09 18:23:00,
2013-02-09 13:52:00,49.0,25.0,-100.00,NNW,329,6.0,16.0,39,0.00,,,0.00,443.000000,,2013-02-09 18:52:00,
2013-02-09 14:01:00,49.0,25.0,-100.00,NNW,329,6.0,16.0,39,0.00,,,0.00,443.000000,,2013-02-09 19:01:00,
2013-02-09 14:11:00,49.0,25.0,-100.00,NNW,329,6.0,16.0,39,0.00,,,0.00,443.000000,,2013-02-09 19:11:00,
2013-02-09 14:22:00,49.0,25.0,-100.00,NNW,329,6.0,16.0,39,0.00,,,0.00,443.000000,,2013-02-09 19:22:00,
2013-02-09 14:52:00,55.0,30.0,-100.00,NNE,14,6.0,13.0,38,0.00,,,0.00,558.000000,,2013-02-09 19:52:00,
2013-02-09 15:01:00,55.0,30.0,-100.00,NNE,14,6.0,13.0,38,0.00,,,0.00,558.000000,,2013-02-09 20:01:00,
2013-02-09 15:11:00,55.0,30.0,-100.00,NNE,14,6.0,13.0,38,0.00,,,0.00,558.000000,,2013-02-09 20:11:00,
2013-02-09 15:21:00,55.0,30.0,-100.00,NNE,14,6.0,13.0,38,0.00,,,0.00,558.000000,,2013-02-09 20:21:00,
2013-02-09 15:52:00,59.0,30.0,-100.00,North,2,5.0,12.0,33,0.00,,,-99.99,617.000000,,2013-02-09 20:52:00,
2013-02-09 16:01:00,59.0,30.0,-100.00,North,2,5.0,12.0,33,0.00,,,-99.99,617.000000,,2013-02-09 21:01:00,
2013-02-09 16:52:00,57.0,28.0,-100.00,NW,306,6.0,10.0,33,0.00,,,0.00,611.000000,,2013-02-09 21:52:00,
2013-02-09 17:01:00,57.0,28.0,-100.00,NW,306,6.0,10.0,33,0.00,,,0.00,611.000000,,2013-02-09 22:01:00,
2013-02-09 17:11:00,57.0,28.0,-100.00,NW,306,6.0,10.0,33,0.00,,,0.00,611.000000,,2013-02-09 22:11:00,
2013-02-09 17:21:00,57.0,28.0,-100.00,NW,306,6.0,10.0,33,0.00,,,0.00,611.000000,,2013-02-09 22:21:00,
2013-02-09 17:52:00,54.0,26.0,-100.00,NNW,337,4.0,13.0,33,0.00,,,0.00,548.000000,,2013-02-09 22:52:00,
2013-02-09 18:01:00,54.0,26.0,-100.00,NNW,337,4.0,13.0,33,0.00,,,0.00,548.000000,,2013-02-09 23:01:00,
2013-02-09 18:11:00,54.0,26.0,-100.00,NNW,337,4.0,13.0,33,0.00,,,0.00,548.000000,,2013-02-09 23:11:00,
2013-02-09 18:21:00,54.0,26.0,-100.00,NNW,337,4.0,13.0,33,0.00,,,0.00,548.000000,,2013-02-09 23:21:00,
2013-02-09 18:52:00,51.0,24.0,-100.00,NNE,33,3.0,8.0,34,0.00,,,0.00,431.000000,,2013-02-09 23:52:00,
2013-02-09 19:02:00,51.0,24.0,-100.00,NNE,33,3.0,8.0,34,0.00,,,0.00,431.000000,,2013-02-10 00:02:00,
2013-02-09 19:11:00,51.0,24.0,-100.00,NNE,33,3.0,8.0,34,0.00,,,0.00,431.000000,,2013-02-10 00:11:00,
2013-02-09 19:21:00,51.0,24.0,-100.00,NNE,33,3.0,8.0,34,0.00,,,0.00,431.000000,,2013-02-10 00:21:00,
2013-02-09 19:52:00,48.0,24.0,-100.00,NE,46,3.0,7.0,38,0.00,,,0.00,274.000000,,2013-02-10 00:52:00,
2013-02-09 20:01:00,48.0,24.0,-100.00,NE,46,3.0,7.0,38,0.00,,,0.00,274.000000,,2013-02-10 01:01:00,
2013-02-09 20:11:00,48.0,24.0,-100.00,NE,46,3.0,7.0,38,0.00,,,0.00,274.000000,,2013-02-10 01:11:00,
2013-02-09 20:21:00,48.0,24.0,-100.00,NE,46,3.0,7.0,38,0.00,,,0.00,274.000000,,2013-02-10 01:21:00,
2013-02-09 20:52:00,46.0,21.0,-100.00,East,84,5.0,8.0,37,0.00,,,0.00,94.000000,,2013-02-10 01:52:00,
2013-02-09 21:01:00,46.0,21.0,-100.00,East,84,5.0,8.0,37,0.00,,,0.00,94.000000,,2013-02-10 02:01:00,
2013-02-09 21:11:00,46.0,21.0,-100.00,East,84,5.0,8.0,37,0.00,,,0.00,94.000000,,2013-02-10 02:11:00,
2013-02-09 21:22:00,46.0,21.0,-100.00,East,84,5.0,8.0,37,0.00,,,0.00,94.000000,,2013-02-10 02:22:00,
2013-02-09 21:52:00,45.0,23.0,-100.00,East,90,6.0,9.0,42,0.00,,,0.00,2.000000,,2013-02-10 02:52:00,
2013-02-09 22:01:00,45.0,23.0,-100.00,East,90,6.0,9.0,42,0.00,,,0.00,2.000000,,2013-02-10 03:01:00,
2013-02-09 22:11:00,45.0,23.0,-100.00,East,90,6.0,9.0,42,0.00,,,0.00,2.000000,,2013-02-10 03:11:00,
2013-02-09 22:21:00,45.0,23.0,-100.00,East,90,6.0,9.0,42,0.00,,,0.00,2.000000,,2013-02-10 03:21:00,
2013-02-09 22:52:00,44.0,20.0,-100.00,WNW,292,2.0,6.0,38,0.00,,,0.00,0.000000,,2013-02-10 03:52:00,
2013-02-09 23:01:00,44.0,20.0,-100.00,WNW,292,2.0,6.0,38,0.00,,,0.00,0.000000,,2013-02-10 04:01:00,
2013-02-09 23:11:00,44.0,20.0,-100.00,WNW,292,2.0,6.0,38,0.00,,,0.00,0.000000,,2013-02-10 04:11:00,
2013-02-09 23:21:00,44.0,20.0,-100.00,WNW,292,2.0,6.0,38,0.00,,,0.00,0.000000,,2013-02-10 04:21:00,
2013-02-09 23:52:00,43.0,21.0,-100.00,West,261,6.0,8.0,41,0.00,,,0.00,0.000000,,2013-02-10 04:52:00,